EGRS VIII

operational
NORAD ID: 2520 Int'l Des: 1966-089 Owner: ACE/GIMR Country: US
MEOCIRCULARPOLAR

Über EGRS VIII

Beschreibung wird geladen...

Live-Position

3D-Globus wird geladen...

Nächste Überflüge

Höhenverlauf

Altitude vs Time

uPlot chart will show altitude changes over time

Zweizeiliger Elementsatz

1 2520U 66089B 26061.37493044 -.00000016 00000-0 -91623-2 0 9999
2 2520 89.8414 32.0554 0015338 56.4372 303.7942 8.58894182372789
Epoch: 2. März 2026 • Age: 43 hours

Aktueller Status

Höhe 3697.2 km
Geschwindigkeit 6.30 km/s
Subsatellitenpunkt 62.65°N, 118.42°E
Typ other

Große Konstellationen

Loading constellations...